Weather History for Kingsville NAS, TX

Change the Weather History Date:

Thursday, October 3, 2013

  Actual Average Record
Temperature  
Mean Temperature 82 °F -  
Max Temperature 91 °F 84 °F 93 °F (2000)
Min Temperature 73 °F 66 °F 59 °F (2010)
Cooling Degree Days 17    
Growing Degree Days 32 (Base 50)    
Moisture  
Dew Point 74 °F    
Average Humidity 80    
Maximum Humidity 97    
Minimum Humidity 57    
Precipitation  
Precipitation 0.00 in - - ()
Sea Level Pressure  
Sea Level Pressure 29.87 in    
Wind  
Wind Speed 8 mph (SSE)    
Max Wind Speed 14 mph    
Max Gust Speed 22 mph    
Visibility 10 miles    
Events      
Averages and records for this station are not official NWS values.
T = Trace of Precipitation, MM = Missing Value Source: NWS Daily Summary

Daily Weather History Graph

Daily Weather History Graph

Search for Another Location

Airport:

Trip Planner

Search our weather history database for the weather conditions in past years. The results will help you decide how hot, cold, wet, or windy it might be!

Date:

Astronomy

Oct. 03, 2013 Rise Set
Actual Time 7:25 AM CDT 7:14 PM CDT
Civil Twilight 7:01 AM CDT 7:38 PM CDT
Nautical Twilight 6:34 AM CDT 8:05 PM CDT
Astronomical Twilight 6:07 AM CDT 8:32 PM CDT
Moon 6:04 AM CDT (10/3) 6:22 PM CDT (10/3)
Length of Visible Light 12h 36m
Length of Day
11h 49m
Waning Crescent, 2% of the Moon is Illuminated
Oct 3
Waning Crescent
Oct 4
New
Oct 11
First Quarter
Oct 18
Full
Oct 26
Last Quarter

Hourly Weather History & Observations

Time (CDT) Temp. Heat Index Dew Point Humidity Pressure Visibility Wind Dir Wind Speed Gust Speed Precip Events Conditions
12:56 AM 79.0 °F - 75.0 °F 88% 29.90 in - South 8.1 mph - N/A   Mostly Cloudy
1:56 AM 77.0 °F - 73.9 °F 90% 29.89 in - South 5.8 mph - N/A   Clear
2:56 AM 75.0 °F - 73.9 °F 96% 29.88 in - SSE 5.8 mph - N/A   Clear
3:56 AM 75.0 °F - 73.9 °F 96% 29.86 in - SSE 5.8 mph - N/A   Clear
4:56 AM 73.9 °F - 73.0 °F 97% 29.86 in - SE 3.5 mph - N/A   Clear
5:56 AM 73.9 °F - 73.0 °F 97% 29.86 in - SE 4.6 mph - N/A   Clear
6:56 AM 73.9 °F - 73.0 °F 97% 29.86 in 8.0 mi South 4.6 mph - N/A   Partly Cloudy
7:56 AM 75.0 °F - 73.9 °F 96% 29.87 in 7.0 mi South 5.8 mph - N/A   Scattered Clouds
8:56 AM 80.1 °F 85.4 °F 75.9 °F 87% 29.90 in 10.0 mi South 8.1 mph - N/A   Partly Cloudy
9:56 AM 84.9 °F 93.3 °F 75.0 °F 72% 29.91 in 10.0 mi South 10.4 mph - N/A   Scattered Clouds
10:56 AM 86.0 °F 95.1 °F 75.0 °F 70% 29.91 in 10.0 mi SSE 11.5 mph - N/A   Mostly Cloudy
11:56 AM 88.0 °F 96.5 °F 73.9 °F 63% 29.90 in 10.0 mi SSE 10.4 mph - N/A   Scattered Clouds
12:56 PM 90.0 °F 97.9 °F 73.0 °F 57% 29.88 in 10.0 mi SSE 11.5 mph 19.6 mph N/A   Scattered Clouds
1:56 PM 91.0 °F 102.9 °F 75.9 °F 61% 29.87 in 10.0 mi ESE 10.4 mph 18.4 mph N/A   Scattered Clouds
2:56 PM 91.0 °F 101.6 °F 75.0 °F 59% 29.84 in 10.0 mi SE 12.7 mph 21.9 mph N/A   Scattered Clouds
3:56 PM 90.0 °F 100.2 °F 75.0 °F 61% 29.83 in 10.0 mi ESE 12.7 mph - N/A   Scattered Clouds
4:56 PM 89.1 °F 98.0 °F 73.9 °F 61% 29.83 in 10.0 mi ESE 13.8 mph - N/A   Partly Cloudy
5:56 PM 87.1 °F 94.5 °F 73.0 °F 63% 29.82 in 10.0 mi SE 12.7 mph - N/A   Partly Cloudy
6:56 PM 84.0 °F 91.2 °F 73.9 °F 72% 29.83 in 10.0 mi SE 12.7 mph - N/A   Partly Cloudy
7:56 PM 80.1 °F 85.1 °F 75.0 °F 85% 29.83 in 10.0 mi ESE 8.1 mph - N/A   Partly Cloudy
8:56 PM 79.0 °F - 73.9 °F 84% 29.85 in 10.0 mi SE 8.1 mph - N/A   Clear
9:56 PM 78.1 °F - 73.9 °F 87% 29.86 in 10.0 mi ESE 6.9 mph - N/A   Clear
11:56 PM 75.9 °F - 73.0 °F 91% 29.88 in 10.0 mi SSE 5.8 mph - N/A   Partly Cloudy